Stony Rapids Airport

Airport
ICAO code: 
CYSF
IATA Code: 
YSF
Summary
ICAO Region: 
NAM
Territory: 
Location: 
Stony Rapids, Saskatchewan
Serving: 
Stony Rapids
Elevation: 
801 ft
Coordinates: 
Aerial View: 
59° 15' 4.101" N, 105° 50' 29.755" W
Airport CFIT: 
Altimeter Temperature Error Correction
Metar
Observation
CYSF 251600Z AUTO 07004KT 9SM -SN FEW066 BKN150 OVC170 M27/M29 A2981 RMK SLP135
Station
Stony Rapids Airport
Date/Time
2022-01-25 16:00:00
Wind direction
70°
Wind speed
04 kts
Lowest cloud amount
few clouds
Temperature
-27°C
Dew point
-29°C
Humidity
82%
Weather condition
light snow

Airport serving Stony Rapids community in Saskatchewan, Canada. The airport is located on the southern outskirts of the town.

Climatology

Humid Continental climate (Köppen climate classification Dfc)

Runways

Designator Length Width Surface Rops
6/24 1539 30 TREATED GR Yes/Yes
Airport map: 
Aerial View: 

SKYbrary Partners:

Safety knowledge contributed by: